Content
SEND FEEDBACK

Daily
Averages
Monthly
Summary
United States of America

ANN ARBOR, MICHIGAN


Home > North America > United States > Michigan
Elevation: 759 feet     Latitude: 42 17N     Longitude: 083 43W

WEATHER
 
SELECT A DAY
Number of Records: 206,302;   Date Range: 1/1/95 - 9/30/14
 
SHARE

PRINT THIS DATA

[ ← Previous Day ]
WEATHER ALMANAC - AUGUST 18, 2013
[ Next Day → ]
[ °C ]   °F
Weather ElementAverageHighLow
Temperature61.8 °F80.1 °F (3:53 pm)53.6 °F (2:50 am)
Dewpoint56.6 °F64.9 °F (9:53 am)53.6 °F (1:16 am)
Humidity86.2 %100 % (12:09 am)45 % (1:53 pm)
Barometer30.19 in30.22 in (8:06 am)30.12 in (5:53 pm)
Wind Speed1.3 mph8.1 mph (6:53 pm)
Weather ElementAverage
Visibility4.7 mi
Wind DirectionNNE (25.4 °)

Weather ElementTotal
Precipitation---
Cooling Degree Days1.8 (Base 65)
Growing Degree Days16.9 (Base 50)
Averaged from 48 records on August 18, 2013
WEATHER CONDITIONS BREAKOUT
WIND DIRECTION BREAKOUT
WEATHER BY HOUR - AUGUST 18, 2013
[ °C ]   °F
Local TimeTemperatureDewpointHumidityBarometerVisibilityWind DirectionWind SpeedGust SpeedPrecipitationEventsConditions
12:09 AM57.2 °F57.2 °F100 %30.21 in4.0 miCalmClear
12:19 AM55.4 °F55.4 °F100 %30.21 in1.0 miCalmClear
12:22 AM55.4 °F55.4 °F100 %30.21 in0.5 miCalmFogFog
12:39 AM57.2 °F55.4 °F94 %30.21 in0.2 miCalmFogFog
12:50 AM57.2 °F55.4 °F94 %30.21 in2.0 miCalmClear
12:53 AM55.9 °F55.9 °F100 %30.20 in8.0 miCalmClear
1:07 AM55.4 °F55.4 °F100 %30.21 in1.8 miCalmClear
1:16 AM55.4 °F53.6 °F94 %30.21 in1.2 miCalmClear
1:24 AM55.4 °F53.6 °F94 %30.21 in0.5 miCalmFogFog
1:44 AM55.4 °F55.4 °F100 %30.20 in1.5 miCalmClear
1:46 AM55.4 °F55.4 °F100 %30.20 in3.0 miCalmClear
1:53 AM55.9 °F55.0 °F97 %30.20 in10.0 miCalmClear
2:50 AM53.6 °F53.6 °F100 %30.21 in2.0 miCalmClear
2:53 AM55.0 °F54.0 °F96 %30.20 in1.5 miCalmClear
3:10 AM55.4 °F53.6 °F94 %30.20 in3.0 miCalmClear
3:42 AM55.4 °F53.6 °F94 %30.20 in1.8 miCalmClear
3:49 AM53.6 °F53.6 °F100 %30.20 in0.8 miCalmClear
3:53 AM54.0 °F54.0 °F100 %30.19 in0.5 miCalmFogFog
4:01 AM55.4 °F55.4 °F100 %30.20 in1.8 miCalmClear
4:03 AM55.4 °F55.4 °F100 %30.20 in3.0 miCalmClear
4:53 AM55.0 °F54.0 °F96 %30.19 in4.0 miCalmClear
5:53 AM57.0 °F55.9 °F96 %30.20 in3.0 miCalmClear
6:04 AM55.4 °F55.4 °F100 %30.21 in2.5 miCalmScattered Clouds
6:19 AM57.2 °F55.4 °F94 %30.21 in1.8 miCalmMostly Cloudy
6:36 AM57.2 °F57.2 °F100 %30.21 in3.0 miCalmMostly Cloudy
6:45 AM57.2 °F57.2 °F100 %30.21 in1.8 miCalmMostly Cloudy
6:53 AM55.9 °F55.0 °F97 %30.21 in1.5 miCalmMostly Cloudy
7:03 AM57.2 °F55.4 °F94 %30.21 in1.0 miCalmMostly Cloudy
7:28 AM59.0 °F57.2 °F94 %30.21 in1.8 miNE (50°)3.5 mphScattered Clouds
7:43 AM60.8 °F59.0 °F94 %30.21 in2.0 miCalmPartly Cloudy
7:53 AM63.0 °F61.0 °F93 %30.21 in2.5 miNNE (30°)3.5 mphClear
8:06 AM64.4 °F62.6 °F94 %30.22 in3.0 miNE (50°)3.5 mphClear
8:53 AM66.9 °F64.0 °F90 %30.22 in6.0 miNE (50°)3.5 mphClear
9:53 AM72.0 °F64.9 °F78 %30.22 in10.0 miNE (40°)4.6 mphClear
10:53 AM75.0 °F61.0 °F62 %30.22 in10.0 miVariable3.5 mphClear
11:53 AM78.1 °F59.0 °F52 %30.21 in10.0 miESE (120°)4.6 mphPartly Cloudy
12:53 PM77.0 °F55.9 °F48 %30.19 in10.0 miNE (50°)3.5 mphMostly Cloudy
1:53 PM79.0 °F55.9 °F45 %30.18 in10.0 miENE (70°)3.5 mphScattered Clouds
2:53 PM79.0 °F55.9 °F45 %30.17 in10.0 miSE (130°)5.8 mphScattered Clouds
3:53 PM80.1 °F57.9 °F47 %30.15 in10.0 miSE (130°)5.8 mphClear
4:53 PM79.0 °F57.0 °F47 %30.14 in10.0 miNorthClear
5:53 PM79.0 °F57.9 °F48 %30.12 in10.0 miSouth (190°)3.5 mphMostly Cloudy
6:53 PM75.0 °F57.9 °F55 %30.13 in10.0 miSSE (150°)8.1 mphScattered Clouds
7:53 PM72.0 °F57.0 °F59 %30.12 in10.0 miSSE (160°)4.6 mphMostly Cloudy
8:53 PM68.0 °F57.0 °F68 %30.13 in10.0 miCalmClear
9:53 PM60.1 °F57.9 °F93 %30.14 in9.0 miCalmClear
10:53 PM59.0 °F57.9 °F96 %30.14 in7.0 miCalmClear
11:53 PM57.9 °F57.0 °F97 %30.13 in6.0 miCalmClear
Hourly data recorded from KARB, located miles away from Ann Arbor, Michigan







STORIES FROM OUR PARTNERS